www.pogodaiklimat.ru

Погода и климат >> Архив погоды >> Финляндия >> Порвоо


ПОГОДА в Порвоо

  • Прогноз погоды в Порвоо
  • Монитор погоды в Порвоо

АРХИВ ПОГОДЫ в Порвоо

Время (UTC), дата Ветер
(напр.,м/с)
 
Видим.   Явления Облачность Т
(С)
Тd
(С)
f
(%)
Тe
(С)
Тes
(С)
Комфортность P
(гПа)
Po
(гПа)
Тmin
(С)
Tmax
(С)
R
(мм)
R24
(мм)
S
(см)
10 11.07 Ю 4 50 км 9/9 600 м
[]
+12.8 +6.7 66 +11 +12 1009.2 1006.4
11 11.07 В 2-4
{5}
45 км 9/9 600 м
[]
+12.7 +6.7 67 +12 +13 1009.3 1006.5
12 11.07 ЮВ 1-2
{4}
50 км 9/9 600 м
[]
+13.3 +6.8 65 +14 +15 1009.2 1006.4
13 11.07 В 3 30 км слаб. морось 9/9 600 м
[]
+13.3 +7.3 67 +12 +13 1009.3 1006.5
14 11.07 С 2 45 км 9/9 1000 м
[]
+15.7 +6.4 54 +16 +17 1009.0 1006.2
15 11.07 СВ 3-5
{6}
50 км {ливн. осадки, дождь} 9/9 1000 м
[]
+14.0 +5.1 55 +13 +14 1009.3 1006.5
16 11.07 Ю 2 50 км в посл. час морось 9/6 1500 м
[]
+13.5 +6.6 63 +13 +14 1009.1 1006.3
17 11.07 ЮЗ 2 50 км 9/9 1000 м
[]
+13.6 +8.6 72 +13 +13 1009.0 1006.2
18 11.07 ЮЗ 2-3
{4}
50 км {ливн. осадки, дождь} 6/0
[]
+12.3 +9.0 80 +11 +12 1009.1 1006.3 +12.3 +15.7
19 11.07 ЮЗ 2 50 км 9/1 1000 м
[]
+11.8 +8.9 82 +11 +11 1009.2 1006.4
20 11.07 З 1 50 км ясно +10.3 +8.6 89 +10 +10 1009.2 1006.4
21 11.07 СЗ 1-1
{2}
50 км ясно +8.6 +7.7 94 +8 +8 1009.4 1006.5
22 11.07 штиль 0-1
{1}
50 км ясно +7.9 +7.6 98 +7 +7 1009.4 1006.6
23 11.07 штиль 0 50 км 9/1 1500 м
[]
+7.1 +6.6 97 +6 +6 1009.4 1006.6
00 12.07 З 1-2
{2}
50 км 4/4
[]
+6.6 +6.4 99 +5 +5 1009.3 1006.4
01 12.07 З 1 50 км 9/4 1500 м
[]
+6.4 +6.1 98 +5 +5 1009.1 1006.3
02 12.07 З 1 50 км 6/6 2000 м
[]
+6.4 +5.8 96 +5 +5 1009.1 1006.2
03 12.07 З 1-2
{2}
50 км 9/6 1500 м
[]
+6.8 +6.1 95 +6 +6 1009.1 1006.2
04 12.07 З 1-3
{3}
50 км 1/0 1500 м
[]
+8.4 +6.7 89 +8 +9 1008.9 1006.1
05 12.07 СЗ 2-3
{3}
50 км 6/4 1500 м
[]
+11.0 +7.9 81 +10 +11 1008.8 1006.0
06 12.07 СЗ 3-4
{4}
35 км 6/6
[]
+12.8 +8.1 73 +11 +13 1009.0 1006.2 +6.1 +13.0
07 12.07 С 3 40 км 1/0
[]
+15.3 +7.8 61 +15 +22 1008.9 1006.1
08 12.07 С 3 40 км 6/0
[]
+17.4 +6.6 49 +17 +24 1008.5 1005.8
09 12.07 С 5-8
{8}
45 км 6/1 1500 м
[]
+17.6 +4.1 41 +17 +21 1008.1 1005.3
10 12.07 СЗ 4 40 км 6/1 1500 м
[]
+17.6 +4.8 43 +17 +23 1008.0 1005.3
11 12.07 СЗ 4 45 км 1/1 1500 м
[]
+18.8 +3.6 36 +19 +27 1008.0 1005.2
12 12.07 СЗ 5-8
{8}
35 км 4/4 1500 м
[]
+19.7 +2.2 31 +20 +24 1007.6 1004.9
13 12.07 СЗ 4-10
{10}
45 км 1/0 2000 м
[]
+19.7 +3.8 35 +20 +26 1007.7 1005.0
14 12.07 СЗ 4 40 км 1/1 1500 м
[]
+19.6 +4.4 37 +20 +25 1007.7 1005.0
15 12.07 С 5-7
{7}
50 км 9/9 2000 м
[]
+19.0 +3.0 34 +19 +19 1007.7 1005.0
16 12.07 СЗ 2 45 км 9/1 1500 м
[]
+18.3 +4.3 40 +19 +20 1007.6 1004.8
17 12.07 С 2-3
{4}
50 км 9/0 2000 м
[]
+17.9 +5.3 43 +18 +18 1007.6 1004.9
18 12.07 СЗ 1-2
{3}
50 км 9/9 2000 м
[]
+17.4 +5.7 46 +18 +18 1007.8 1005.0 +12.8 +20.9
19 12.07 СЗ 1-2
{2}
50 км 9/0
[]
+16.9 +5.4 47 +18 +18 1008.0 1005.2
20 12.07 штиль 0 50 км 10/10 2000 м
[]
+15.4 +8.3 63 +15 +15 1008.1 1005.4
21 12.07 штиль 0-1
{3}
50 км 10/10 2000 м
[]
+14.7 +8.1 65 +15 +15 1008.2 1005.5
22 12.07 штиль 0-1
{1}
50 км 10/0 2000 м
[]
+14.1 +8.4 69 +14 +14 1008.4 1005.6
23 12.07 штиль 0 50 км 10/10 2000 м
[]
+12.8 +9.9 83 +12 +12 1008.3 1005.5
00 13.07 штиль 0
{1}
50 км 10/10
[]
+12.3 +9.8 85 +12 +12 1008.1 1005.3
01 13.07 штиль 0 50 км 10/10 2000 м
[]
+11.9 +9.5 85 +11 +11 1007.9 1005.1
02 13.07 С 1-1
{1}
50 км 9/0 2000 м
[]
+11.5 +9.4 87 +11 +11 1007.8 1004.9
03 13.07 С 1-1
{1}
50 км 9/9 2000 м
[]
+12.1 +10.1 88 +12 +12 1007.6 1004.8
04 13.07 СЗ 1 50 км 9/9 2000 м
[]
+12.3 +10.5 89 +12 +12 1007.7 1004.9
05 13.07 СЗ 2 50 км 9/1 1500 м
[]
+13.6 +9.4 76 +13 +15 1007.7 1004.9
06 13.07 С 4-5
{5}
40 км ясно +16.1 +7.9 58 +15 +19 1007.7 1005.0 +11.5 +17.4
07 13.07 С 3-5
{5}
30 км ясно +17.3 +6.9 50 +17 +24 1007.5 1004.8
08 13.07 С 4-6
{7}
45 км 1/0
[]
+18.7 +4.3 39 +19 +26 1007.6 1004.9
09 13.07 С 3-6
{7}
40 км ясно +20.6 +2.9 31 +21 +32 комфорт 1007.7 1005.0
10 13.07 С 5 20 км 4/4 1500 м
[]
+18.8 +5.8 43 +19 +23 1007.8 1005.1
11 13.07 СВ 3-7
{8}
45 км 6/4 1500 м
[]
+20.5 +4.3 34 +21 +29 комфорт 1008.0 1005.2
12 13.07 С 4 40 км 4/1 1500 м
[]
+20.4 +3.1 32 +21 +27 комфорт 1007.9 1005.1
13 13.07 С 5 40 км 9/9 2000 м
[]
+21.1 +4.5 34 +21 +22 комфорт 1008.2 1005.4
14 13.07 СВ 5 40 км 9/9
[]
+18.9 +6.8 45 +19 +19 1008.7 1006.0
15 13.07 СВ 3-6
{8}
50 км 9/9 2000 м
[]
+16.6 +8.5 59 +16 +19 1009.3 1006.6
16 13.07 СВ 3 50 км 9/9 2000 м
[]
+16.4 +8.1 58 +16 +16 1009.5 1006.7
17 13.07 В 2 50 км 9/9 2000 м
[]
+16.0 +9.0 63 +16 +16 1009.7 1006.9
18 13.07 СВ 1-2
{5}
50 км 1/0
[]
+16.1 +8.4 60 +17 +17 1010.0 1007.2 +15.6 +21.1
19 13.07 СВ 1-3
{3}
50 км 4/4 1000 м
[]
+15.2 +8.3 63 +16 +16 1010.3 1007.5
20 13.07 С 1-2
{2}
50 км 9/9 1500 м
[]
+13.1 +9.9 81 +13 +13 1010.5 1007.7
21 13.07 С 2-3
{3}
50 км 4/1 1500 м
[]
+12.3 +8.9 80 +11 +11 1011.0 1008.1
22 13.07 С 2 50 км 1/1 1500 м
[]
+11.3 +7.8 79 +10 +10 1011.1 1008.2
23 13.07 СВ 1 50 км ясно +10.3 +7.1 81 +10 +10 1011.1 1008.3
00 14.07 С 1-1
{2}
50 км ясно +8.0 +6.1 88 +7 +7 1011.4 1008.5
01 14.07 С 1 50 км ясно +6.9 +6.0 94 +6 +6 1011.5 1008.7
02 14.07 С 2 50 км ясно +6.3 +5.7 96 +4 +4 1011.6 1008.7
03 14.07 С 2-2
{2}
50 км ясно +6.8 +5.9 94 +4 +5 1011.7 1008.8
04 14.07 С 2 50 км ясно +8.4 +6.4 87 +6 +8 1011.7 1008.9
05 14.07 С 2 50 км ясно +10.7 +7.1 78 +9 +13 1011.8 1009.0
06 14.07 С 2-3
{3}
40 км ясно +13.7 +7.3 65 +13 +19 1011.9 1009.1 +6.2 +16.1
07 14.07 СВ 2 45 км ясно +15.6 +6.4 54 +16 +24 1011.9 1009.1
08 14.07 С 2 40 км 4/4 1000 м
[]
+16.1 +5.8 50 +16 +23 1012.0 1009.2
09 14.07 В 1-3
{4}
35 км 1/1 1500 м
[]
+16.8 +5.6 48 +18 +31 опасность
простуды
1011.9 1009.1
10 14.07 СЗ 3 40 км 1/1 1000 м
[]
+16.5 +5.0 46 +16 +26 1011.8 1009.1
11 14.07 ЮВ 2 50 км 4/4 1500 м
[]
+17.2 +4.5 43 +18 +25 1011.7 1008.9
12 14.07 Ю 3-5
{5}
50 км 9/9 1500 м
[]
+17.2 +6.4 49 +17 +18 1011.6 1008.8
13 14.07 Ю 3-5
{5}
50 км 9/9 1500 м
[]
+16.8 +6.7 51 +17 +17 1011.7 1009.0
14 14.07 Ю 3-4
{6}
50 км 9/4 1500 м
[]
+16.7 +6.7 52 +17 +19 1011.7 1009.0
15 14.07 Ю 2-4
{5}
45 км 4/1 1500 м
[]
+18.0 +6.5 47 +19 +22 1011.4 1008.6
16 14.07 Ю 3 45 км 9/6 1500 м
[]
+18.2 +7.4 49 +18 +19 1011.3 1008.5
17 14.07 Ю 3 50 км 6/6 1500 м
[]
+16.4 +7.9 57 +16 +17 1011.5 1008.8
18 14.07 Ю 3-4
{5}
50 км 9/9 2000 м
[]
+15.7 +8.5 62 +15 +15 1011.5 1008.8 +13.7 +18.5
19 14.07 Ю 2-3
{4}
50 км 9/1 1500 м
[]
+15.1 +9.1 67 +15 +15 1011.6 1008.8
20 14.07 ЮЗ 1 50 км 9/1 1500 м
[]
+14.6 +9.5 71 +15 +15 1011.7 1008.9
21 14.07 штиль 0-1
{2}
50 км 9/9 2000 м
[]
+12.7 +9.8 83 +12 +12 1011.8 1009.0
22 14.07 штиль 0 50 км 9/4 1500 м
[]
+12.8 +9.9 83 +12 +12 1011.6 1008.8
23 14.07 ЮВ 1 50 км 9/4 1500 м
[]
+13.0 +9.7 80 +13 +13 1011.4 1008.6
00 15.07 штиль 0-1
{1}
50 км 10/1 1500 м
[]
+12.3 +10.4 88 +12 +12 1011.4 1008.6
01 15.07 ЮВ 1 50 км 10/10 2000 м
[]
+12.4 +10.4 88 +12 +12 1011.2 1008.4
02 15.07 штиль 0-1
{1}
50 км 10/0 2000 м
[]
+11.7 +10.5 92 +11 +11 1011.1 1008.3
03 15.07 ЮВ 1-1
{1}
50 км 9/9 2000 м
[]
+12.4 +10.6 89 +12 +12 1010.8 1008.0
04 15.07 штиль 0-2
{2}
50 км 1/0 2000 м
[]
+12.8 +11.0 89 +12 +13 1010.7 1007.9
05 15.07 Ю 1 50 км 9/9 2000 м
[]
+15.5 +12.3 81 +16 +17 1010.5 1007.8
06 15.07 Ю 2-4
{4}
35 км 6/1 300 м
[]
+16.5 +12.7 78 +17 +20 1010.4 1007.6 +11.5 +16.5
07 15.07 Ю 2-3
{4}
40 км 4/4 300 м
[]
+16.8 +12.4 75 +17 +18 1010.2 1007.4
08 15.07 Ю 3-4
{5}
40 км 9/4 1500 м
[]
+17.2 +12.5 74 +17 +18 1010.0 1007.2
09 15.07 Ю 3-5
{5}
21 км 4/4 600 м
[]
+18.9 +9.9 56 +20 +26 1009.8 1007.0
10 15.07 Ю 3 25 км слаб. ливневой дождь 9/6 1500 м
[]
+16.4 +13.0 80 +16 +19 1009.9 1007.1
11 15.07 ЮВ 4 50 км в посл. час дождь 6/6 300 м
[]
+17.0 +13.5 80 +17 +20 1009.7 1006.9
12 15.07 Ю 4-7
{8}
45 км {ливн. осадки, дождь} 1/1 1000 м
[]
+18.4 +12.3 68 +19 +26 1009.5 1006.7
13 15.07 Ю 4 50 км 1/1
[]
+18.6 +11.1 62 +19 +25 1009.6 1006.8
14 15.07 Ю 3-4
{6}
45 км 9/9 2000 м
[]
+17.5 +11.6 68 +18 +18 1009.5 1006.7
15 15.07 Ю 4-6
{6}
45 км 6/6
[]
+18.1 +11.2 64 +18 +19 1009.0 1006.3
16 15.07 Ю 3 50 км 9/9
[]
+17.9 +11.6 67 +18 +18 1008.9 1006.2
17 15.07 ЮВ 3 50 км 9/9 2000 м
[]
+17.0 +12.0 72 +17 +17 1008.9 1006.2
18 15.07 ЮВ 2-3
{5}
50 км 9/9
[]
+16.6 +12.7 78 +17 +17 1008.5 1005.7 +16.2 +19.5 0.1
19 15.07 ЮВ 2 50 км 9/9
[]
+16.4 +12.6 78 +17 +17 1008.2 1005.5
20 15.07 ЮВ 2 50 км 6/1 1500 м
[]
+15.7 +12.6 82 +16 +16 1008.0 1005.2
21 15.07 ЮВ 4-7
{7}
50 км 10/10
[]
+16.3 +12.6 79 +16 +16 1007.7 1005.0
22 15.07 ЮВ 3-5
{7}
45 км слаб. дождь 9/1 1500 м
[]
+15.7 +12.9 83 +15 +15 1007.5 1004.8
23 15.07 ЮВ 3-4
{5}
50 км 9/9
[]
+15.5 +13.6 88 +15 +15 1007.4 1004.6
00 16.07 ЮВ 2-3
{5}
50 км {ливн. осадки, дождь} ясно +14.8 +12.7 87 +14 +14 1007.2 1004.4
01 16.07 ЮВ 3-4
{4}
50 км 6/6 1000 м
[]
+14.4 +12.5 88 +13 +13 1007.1 1004.3
02 16.07 ЮВ 3 50 км 1/1
[]
+14.2 +12.3 88 +13 +13 1006.9 1004.1
03 16.07 ЮВ 3-6
{6}
50 км 9/9
[]
+15.1 +12.5 84 +14 +14 1006.9 1004.2
04 16.07 ЮВ 3 50 км 6/6
[]
+15.8 +12.6 81 +15 +16 1007.0 1004.3
05 16.07 Ю 3-5
{6}
45 км 4/0 1500 м
[]
+16.9 +12.5 75 +17 +19 1007.0 1004.2
06 16.07 Ю 3-6
{6}
40 км 9/1 1500 м
[]
+17.3 +12.2 72 +17 +20 1007.1 1004.3 +14.2 +17.6
07 16.07 ЮВ 3-6
{6}
45 км 9/1 1000 м
[]
+18.0 +12.4 70 +18 +21 1007.2 1004.4
08 16.07 ЮВ 5 50 км 9/9
[]
+19.3 +11.3 60 +20 +21 1007.2 1004.4
09 16.07 ЮВ 5-8
{9}
45 км 9/1 1500 м
[]
+19.6 +11.3 59 +21 +24 комфорт 1007.3 1004.6
10 16.07 ЮВ 5-8
{10}
30 км 4/0
[]
+20.3 +10.3 53 +22 +22 комфорт 1007.3 1004.6
11 16.07 ЮВ 6 45 км ясно +20.9 +10.7 52 +23 +28 комфорт 1007.4 1004.7
12 16.07 ЮВ 6-9
{11}
30 км 1/1
[]
+21.0 +10.9 52 +23 +27 комфорт 1007.3 1004.6
14 16.07 Ю 5-8
{9}
50 км 9/9 600 м
[]
+18.7 +12.1 65 +19 +19 1008.6 1005.8
15 16.07 В 1-2
{6}
50 км слаб. ливневой дождь 9/9 2000 м
[]
+17.3 +11.6 69 +18 +19 1008.7 1006.0
16 16.07 ЮВ 2 45 км 9/9
[]
+18.0 +12.0 68 +19 +19 1008.9 1006.2
17 16.07 ЮВ 3 50 км 4/4 2000 м
[]
+17.9 +10.6 62 +18 +19 1008.9 1006.1
18 16.07 СВ 2-3
{3}
45 км {ливн. осадки, дождь} 1/1
[]
+17.8 +11.0 64 +18 +19 1009.0 1006.2 +17.0 +21.2
19 16.07 СВ 2-2
{3}
50 км 6/0
[]
+16.2 +11.7 75 +16 +16 1009.1 1006.3
20 16.07 С 3-3
{3}
50 км ясно +14.9 +11.9 82 +14 +14 1009.1 1006.3
21 16.07 С 2-2
{3}
50 км ясно +13.6 +11.8 89 +13 +13 1009.3 1006.5
22 16.07 С 2-3
{3}
50 км ясно +13.3 +11.6 89 +13 +13 1009.4 1006.6
23 16.07 С 2-3
{3}
50 км ясно +12.6 +11.0 90 +12 +12 1009.4 1006.6
00 17.07 С 2-3
{3}
50 км ясно +11.7 +10.3 91 +11 +11 1009.5 1006.7
01 17.07 С 2 50 км ясно +11.6 +10.1 91 +10 +10 1009.6 1006.8
02 17.07 С 3 50 км ясно +10.7 +9.2 90 +9 +9 1009.7 1006.8
03 17.07 С 3-4
{4}
50 км ясно +11.5 +9.3 86 +10 +10 1009.7 1006.9
04 17.07 С 2 50 км ясно +12.9 +9.7 81 +12 +14 1009.7 1006.9
05 17.07 С 2 50 км ясно +15.6 +10.6 72 +16 +19 1009.6 1006.8
06 17.07 С 3-3
{4}
35 км ясно +18.1 +10.7 62 +18 +23 1009.6 1006.8 +10.6 +18.1
07 17.07 С 3-5
{5}
35 км ясно +19.5 +11.0 58 +21 +28 комфорт 1009.5 1006.8
08 17.07 СВ 3-5
{6}
35 км ясно +21.7 +9.9 47 +23 +32 комфорт 1009.4 1006.6
09 17.07 СВ 3-8
{8}
35 км 1/1 1500 м
[]
+22.3 +8.2 40 +23 +33 комфорт 1009.3 1006.6
10 17.07 В 3 40 км 9/1 1500 м
[]
+23.2 +7.5 36 +24 +30 комфорт 1009.2 1006.5
11 17.07 В 4 50 км 9/1 1500 м
[]
+20.5 +9.5 49 +22 +26 комфорт 1009.4 1006.7
12 17.07 СВ 4-6
{7}
40 км слаб. ливневой дождь 9/1 1500 м
[]
+21.5 +9.8 47 +23 +27 комфорт 1009.7 1007.0
13 17.07 СВ 3 50 км слаб. ливневой дождь 9/9 2000 м
[]
+21.0 +11.1 53 +23 +24 комфорт 1009.6 1006.9
14 17.07 С 4 40 км 6/6
[]
+21.0 +12.2 57 +24 +26 комфорт 1009.9 1007.2
15 17.07 СВ 3-5
{6}
40 км {ливн. осадки, метель} ясно +21.7 +10.6 49 +23 +27 комфорт 1010.1 1007.4
16 17.07 ЮЗ 2 50 км 4/4 1000 м
[]
+19.9 +12.1 61 +22 +24 комфорт 1010.2 1007.4
17 17.07 ЮЗ 2 50 км 4/4 2000 м
[]
+20.5 +11.7 57 +23 +24 комфорт 1009.9 1007.2
18 17.07 СЗ 2-3
{3}
50 км {ливн. осадки, метель} 9/9
[]
+19.5 +11.9 61 +21 +21 комфорт 1010.4 1007.7 +18.1 +23.5
19 17.07 С 1 50 км 9/9
[]
+18.1 +12.3 69 +19 +19 1010.5 1007.8
20 17.07 С 2-2
{3}
50 км 1/0
[]
+15.9 +12.4 80 +16 +16 1010.4 1007.6
21 17.07 С 2-2
{3}
50 км ясно +14.0 +12.2 89 +13 +13 1010.4 1007.6
22 17.07 С 2-2
{3}
50 км ясно +13.3 +12.2 93 +13 +13 1010.4 1007.6
23 17.07 С 2 50 км ясно +12.6 +11.8 95 +12 +12 1010.6 1007.8
00 18.07 С 1-2
{2}
50 км ясно +11.9 +11.3 96 +12 +12 1010.5 1007.7
01 18.07 С 2 45 км ясно +11.2 +11.0 99 +10 +10 1010.4 1007.6
02 18.07 С 1 20 км ясно +10.5 +10.4 99 +10 +10 1010.4 1007.6
03 18.07 С 2-3
{3}
45 км ясно +10.9 +10.4 97 +9 +10 1010.4 1007.6
04 18.07 С 2 50 км ясно +13.1 +11.9 92 +12 +14 1010.4 1007.6
05 18.07 С 3 50 км ясно +15.2 +12.5 84 +14 +17 1010.4 1007.6
06 18.07 С 4-5
{5}
35 км ясно +17.8 +12.4 71 +18 +22 1010.4 1007.7 +10.3 +19.5
07 18.07 С 4 30 км ясно +19.6 +12.3 63 +21 +27 комфорт 1010.1 1007.4
08 18.07 С 5 35 км ясно +21.5 +11.5 53 +24 +29 комфорт 1009.8 1007.1

 

Местоположение метеостанции Порвоо (Финляндия): широта 60.39 долгота 25.61 высота над уровнем моря 22 м.

В архиве по умолчанию представлена погода в Порвоо за последнюю неделю. Архивные данные за месяц целиком и за предыдущие месяцы, начиная с января 2011 года, Вы можете получить, выбрав интересующий диапазон дат из раскрывающегося списка и нажав кнопку "Ввод!".


*Определитесь, кто Вы:
робот инопланетянин человек

Внимание! Время в таблицах - всемирное. Для получения местного времени необходимо прибавить поправку, которая равна 1 ч.

Смотрите также архив погоды в соседних городах и на ближайших метеорологических станциях:

Погода в Килпилахти (Финляндия) (11 км)
Погода на Эмасало (Финляндия) (21 км)
Погода на Острове Синго (Финляндия) (35 км)
Погода в Хельсинки (Финляндия) (36 км)
Погода в Хельсинки университете (Финляндия) (42 км)
Погода в Хельсинки Кайсаниеми (Финляндия) (44 км)
Погода на Маяке Kalbadagrund (Финляндия) (44 км)
Погода на Острове Хармая (Финляндия) (47 км)
Погода в Орренгрунде (Финляндия) (48 км)
Погода в Хювинкяа (Финляндия) (50 км)

Пояснения к столбцам:

Ветер - указаны скорость ветра в м/с - средняя за 10 мин, порывы в срок и между сроками (в фигурных скобках) и направление, откуда дует ветер: С - северный, СВ - северо-восточный, В - восточный, ЮВ - юго-восточный, Ю - южный, ЮЗ - юго-западный, З - западный, СЗ - северо-западный.
Видимость - горизонтальная дальность видимости в метрах или километрах. При видимости от 1 до 10 км при отсутствии осадков обычно наблюдается дымка, при ухудшении видимости до 1 км и менее - туман. В сухую погоду видимость может ухудшаться дымом, пылью или мглою.
Явления - указаны атмосферные явления, наблюдавшиеся в срок или в последний час перед сроком; фигурными скобками обозначены явления, наблюдавшиеся между сроками (за 1-3 часа до срока); квадратными скобками обозначены град или гололедные отложения с указанием их диаметра в мм.
Облачность - указаны через наклонную черту общая и нижняя облачность в баллах и высота нижней границы облаков в метрах; квадратными скобками обозначены формы облаков: Ci - перистые, Cs - перисто-слоистые, Cc - перисто-кучевые, Ac - высококучевые, As - высокослоистые, Sc - слоисто-кучевые, Ns - слоисто-дождевые, Cu - кучевые, Cb - кучево-дождевые. Подробнее классификацию облаков см. в Атласе облаков (PDF).
T - Температура воздуха - температура, измеренная на высоте 2 м над землей.
Td - Температура точки росы - температура, при понижении до которой содержащийся в воздухе водяной пар достигнет насыщения.
f - Относительная влажность воздуха - влажноcть воздуха, измеренная на высоте 2 м над землей.
Te - Эффективная температура - температура, которую ощущает одетый по сезону человек в тени. Характеристика душности погоды. При расчете учитывается влияние влажности воздуха и скорости ветра на теплоощущения человека.
Tes - Эффективная температура на солнце - температура, которую ощущает человек, с поправкой на солнечный нагрев. Характеристика знойности погоды. Зависит от высоты солнца над горизонтом, облачности и скорости ветра. Ночью, в пасмурную погоду, а также при ветре 12 м/с и более поправка равна нулю.
P - Атмосферное давление - приведенное к уровню моря атмосферное давление.
Po - Атмосферное давление - измеренное на уровне метеостанции атмосферное давление.
Tmin - Минимальная температура - минимум температуры воздуха на высоте 2 м над землей.
Tmax - Максимальная температура - максимум температуры воздуха на высоте 2 м над землей.
R - Количество осадков - Количество выпавших осадков за период времени, мм. При наведении курсора мыши на число - период времени, за который выпало указанное количество осадков.
R24 - Количество осадков - Количество выпавших осадков за 24 часа, мм.
S - Снежный покров - Высота снежного покрова, см. При наведении курсора мыши на число - состояние снежного покрова и степень покрытия местности в баллах.